Date String (YYYY-MM-DD hh:mm:ss) UTC,Instrument flags,absolute air pressure of the measurement (hPa),sample flow rate (lpm),inlet stack bypass flow (lpm),air temperature of the measurement (°C),ambient temperature measured by the external sensor (°C),aerosol sample conditioner tube jacket temperature (°C),OPC LED temperature (°C),internal box temperature (°C),relative humidity of the measurement (%),span deviation,mass concentration of particles derived from Lorenz-Mie calculation of OPC scattering (μg/m³),mass concentration of particles derived from Lorenz-Mie calculation of OPC scattering (μg/m³),mass concentration of particles derived from Lorenz-Mie calculation of OPC scattering (μg/m³)
DateTimeUTC,F1_M11,P_M11,Q1_M11,Q2_M11,T1_M11,T2_M11,T3_M11,T4_M11,T5_M11,U1_M11,ZSPAN_M11,X0_M11,X2_M11,X1_M11
2023-09-09 11:00:00,SystemResetWarning,0835.1,5.00,000.00,028.5,027.2,000.0,036.8,030.1,11.1,0000.0,0004.40,0001.63,0001.11
2023-09-09 11:01:00,SystemResetWarning,0835.1,4.99,000.00,028.5,027.3,000.0,036.8,030.1,11.1,0000.0,0004.12,0001.57,0001.11
2023-09-09 11:02:00,SystemResetWarning,0835.1,5.00,000.00,028.5,027.3,000.0,036.9,030.1,11.2,0000.0,0003.85,0001.55,0001.11
2023-09-09 11:03:00,SystemResetWarning,0835.1,5.00,000.00,028.5,027.4,000.0,036.9,030.1,11.1,0000.0,0003.21,0001.57,0001.11
2023-09-09 11:04:00,SystemResetWarning,0835.1,5.00,000.00,028.6,027.4,000.0,036.9,030.1,11.1,0000.0,0003.38,0001.59,0001.11
2023-09-09 11:05:00,SystemResetWarning,0835.2,5.00,000.00,028.6,027.5,000.0,036.9,030.1,11.0,0000.0,0003.36,0001.58,0001.11
2023-09-09 11:06:00,SystemResetWarning,0835.1,5.00,000.00,028.6,027.5,000.0,036.9,030.2,11.1,0000.0,0003.37,0001.60,0001.12
2023-09-09 11:07:00,SystemResetWarning,0835.2,5.00,000.00,028.6,027.5,000.0,036.9,030.2,11.1,0000.0,0003.29,0001.61,0001.12
2023-09-09 11:08:00,SystemResetWarning,0835.3,5.00,000.00,028.6,027.5,000.0,037.0,030.2,11.1,0000.0,0003.21,0001.55,0001.13
2023-09-09 11:09:00,SystemResetWarning,0835.3,5.00,000.00,028.7,027.6,000.0,037.0,030.2,11.1,0000.0,0003.00,0001.48,0001.12
2023-09-09 11:10:00,SystemResetWarning,0835.3,5.00,000.00,028.7,027.6,000.0,037.0,030.3,11.0,0000.0,0003.09,0001.46,0001.11
2023-09-09 11:11:00,SystemResetWarning,0835.3,4.99,000.00,028.7,026.4,000.0,036.9,030.1,11.1,0000.0,0003.04,0001.48,0001.11
2023-09-09 11:12:00,SystemResetWarning,0835.2,5.00,000.00,028.6,024.8,000.0,036.9,029.9,11.4,0000.0,0003.09,0001.48,0001.11
2023-09-09 11:13:00,SystemResetWarning,0835.2,5.00,000.00,028.6,024.6,000.0,036.8,029.8,11.4,0000.0,0003.20,0001.51,0001.12
2023-09-09 11:14:00,SystemResetWarning,0835.1,5.01,000.00,028.4,024.8,000.0,036.8,029.6,11.3,0000.0,0004.41,0001.53,0001.13
2023-09-09 11:15:00,SystemResetWarning,0835.1,5.01,000.00,028.4,025.2,000.0,036.8,029.6,11.2,0000.0,0005.04,0001.52,0001.13
2023-09-09 11:16:00,SystemResetWarning,0835.1,4.99,000.00,028.3,025.6,000.0,036.8,029.6,11.1,0000.0,0004.98,0001.52,0001.13
2023-09-09 11:17:00,SystemResetWarning,0835.2,5.00,000.00,028.3,025.9,000.0,036.8,029.7,11.1,0000.0,0005.11,0001.55,0001.13
2023-09-09 11:18:00,SystemResetWarning,0835.3,5.00,000.00,028.3,026.2,000.0,036.8,029.7,11.1,0000.0,0005.17,0001.55,0001.13
2023-09-09 11:19:00,SystemResetWarning,0835.3,5.00,000.00,028.3,026.4,000.0,036.8,029.8,11.1,0000.0,0005.18,0001.55,0001.11
2023-09-09 11:20:00,SystemResetWarning,0835.5,4.99,000.00,028.3,026.6,000.0,036.8,029.8,11.3,0000.0,0004.83,0001.55,0001.11
2023-09-09 11:21:00,SystemResetWarning,0835.4,5.00,000.00,028.3,026.8,000.0,036.8,029.8,11.4,0000.0,0004.75,0001.56,0001.12
2023-09-09 11:22:00,SystemResetWarning,0835.3,5.00,000.00,028.4,026.9,000.0,036.8,029.9,11.5,0000.0,0004.72,0001.57,0001.12
2023-09-09 11:23:00,SystemResetWarning,0835.3,5.00,000.00,028.4,027.0,000.0,036.8,029.9,11.3,0000.0,0004.63,0001.57,0001.11
2023-09-09 11:24:00,SystemResetWarning,0835.3,5.00,000.00,028.4,027.1,000.0,036.8,030.0,11.2,0000.0,0004.73,0001.58,0001.11
2023-09-09 11:25:00,SystemResetWarning,0835.2,5.00,000.00,028.4,027.2,000.0,036.8,030.0,11.4,0000.0,0004.34,0001.61,0001.10
2023-09-09 11:26:00,SystemResetWarning,0835.2,5.00,000.00,028.5,027.3,000.0,036.8,030.1,11.3,0000.0,0002.96,0001.63,0001.09
2023-09-09 11:27:00,SystemResetWarning,0835.2,5.00,000.00,028.5,027.3,000.0,036.9,030.1,11.1,0000.0,0003.07,0001.64,0001.09
2023-09-09 11:28:00,SystemResetWarning,0835.2,5.00,000.00,028.5,027.4,000.0,036.9,030.1,11.0,0000.0,0003.54,0001.64,0001.08
2023-09-09 11:29:00,SystemResetWarning,0835.2,5.00,000.00,028.5,027.4,000.0,036.9,030.1,11.0,0000.0,0004.48,0001.62,0001.08
2023-09-09 11:30:00,SystemResetWarning,0835.2,5.00,000.00,028.6,027.5,000.0,036.9,030.2,11.0,0000.0,0004.48,0001.61,0001.08
2023-09-09 11:31:00,SystemResetWarning,0835.3,5.00,000.00,028.6,027.5,000.0,036.9,030.2,10.9,0000.0,0004.95,0001.63,0001.07
2023-09-09 11:32:00,SystemResetWarning,0835.3,5.00,000.00,028.6,027.6,000.0,036.9,030.3,10.9,0000.0,0005.09,0001.62,0001.06
2023-09-09 11:33:00,SystemResetWarning,0835.5,5.00,000.00,028.7,027.6,000.0,037.0,030.3,10.9,0000.0,0004.94,0001.59,0001.06
2023-09-09 11:34:00,SystemResetWarning,0835.3,5.00,000.00,028.7,027.7,000.0,037.0,030.3,11.3,0000.0,0005.05,0001.60,0001.06
2023-09-09 11:35:00,SystemResetWarning,0835.2,5.00,000.00,028.7,027.7,000.0,037.0,030.3,11.1,0000.0,0005.05,0001.61,0001.06
2023-09-09 11:36:00,SystemResetWarning,0835.2,5.00,000.00,028.7,027.7,000.0,037.0,030.4,11.1,0000.0,0005.12,0001.53,0001.06
2023-09-09 11:37:00,SystemResetWarning,0835.2,5.00,000.00,028.8,027.7,000.0,037.0,030.4,11.1,0000.0,0005.18,0001.48,0001.06
2023-09-09 11:38:00,SystemResetWarning,0835.2,5.00,000.00,028.8,027.8,000.0,037.1,030.4,11.1,0000.0,0005.35,0001.46,0001.06
2023-09-09 11:39:00,SystemResetWarning,0835.3,4.99,000.00,028.8,027.0,000.0,037.1,030.3,11.0,0000.0,0004.85,0001.45,0001.06
2023-09-09 11:40:00,SystemResetWarning,0835.3,5.01,000.00,028.7,025.1,000.0,037.0,030.0,11.2,0000.0,0004.12,0001.47,0001.06
2023-09-09 11:41:00,SystemResetWarning,0835.3,5.00,000.00,028.7,024.7,000.0,036.9,029.9,11.5,0000.0,0003.91,0001.48,0001.06
2023-09-09 11:42:00,SystemResetWarning,0835.4,5.01,000.00,028.5,024.8,000.0,036.9,029.7,11.6,0000.0,0003.53,0001.49,0001.06
2023-09-09 11:43:00,SystemResetWarning,0835.4,5.00,000.00,028.5,025.2,000.0,036.9,029.7,11.7,0000.0,0003.42,0001.51,0001.06
2023-09-09 11:44:00,SystemResetWarning,0835.4,5.00,000.00,028.4,025.5,000.0,036.9,029.7,11.8,0000.0,0003.62,0001.55,0001.05
2023-09-09 11:45:00,SystemResetWarning,0835.5,5.00,000.00,028.4,025.9,000.0,036.9,029.7,11.8,0000.0,0003.51,0001.52,0001.04
2023-09-09 11:46:00,SystemResetWarning,0835.5,5.00,000.00,028.4,026.1,000.0,036.9,029.8,11.9,0000.0,0003.30,0001.48,0001.04
2023-09-09 11:47:00,SystemResetWarning,0835.5,4.99,000.00,028.4,026.4,000.0,036.9,029.8,11.9,0000.0,0002.99,0001.47,0001.04
2023-09-09 11:48:00,SystemResetWarning,0835.7,5.00,000.00,028.4,026.6,000.0,036.9,029.8,12.0,0000.0,0003.06,0001.49,0001.05
2023-09-09 11:49:00,SystemResetWarning,0835.6,4.99,000.00,028.4,026.8,000.0,036.9,029.9,12.0,0000.0,0003.00,0001.56,0001.05
2023-09-09 11:50:00,SystemResetWarning,0835.6,5.00,000.00,028.4,026.9,000.0,036.9,029.9,12.1,0000.0,0003.58,0001.56,0001.06
2023-09-09 11:51:00,SystemResetWarning,0835.5,5.00,000.00,028.4,027.0,000.0,036.9,030.0,12.1,0000.0,0003.58,0001.53,0001.06
2023-09-09 11:52:00,SystemResetWarning,0835.6,5.01,000.00,028.5,027.1,000.0,036.9,030.0,12.2,0000.0,0003.41,0001.49,0001.07
2023-09-09 11:53:00,SystemResetWarning,0835.5,5.00,000.00,028.5,027.2,000.0,036.9,030.1,12.3,0000.0,0003.38,0001.47,0001.07
2023-09-09 11:54:00,SystemResetWarning,0835.5,5.00,000.00,028.5,027.3,000.0,036.9,030.1,12.3,0000.0,0003.39,0001.47,0001.08
2023-09-09 11:55:00,SystemResetWarning,0835.5,5.00,000.00,028.5,027.4,000.0,036.9,030.1,12.4,0000.0,0003.26,0001.43,0001.08
2023-09-09 11:56:00,SystemResetWarning,0835.6,5.00,000.00,028.6,027.5,000.0,036.9,030.2,12.4,0000.0,0003.35,0001.45,0001.09
2023-09-09 11:57:00,SystemResetWarning,0835.5,5.00,000.00,028.6,027.5,000.0,036.9,030.2,12.3,0000.0,0003.50,0001.51,0001.10
2023-09-09 11:58:00,SystemResetWarning,0835.5,5.00,000.00,028.6,027.5,000.0,037.0,030.2,12.2,0000.0,0003.82,0001.53,0001.10
2023-09-09 11:59:00,SystemResetWarning,0835.6,5.00,000.00,028.6,027.6,000.0,037.0,030.2,12.2,0000.0,0003.64,0001.52,0001.10
